Preview of NWS' New Version of Forecast
This preview is not operational and should not be used for support decisions.

Regional Weather Roundup (RWR)

Issued by National Weather Service (NWS)

                            
000
ASUS45 KBOU 221910
RWRCO 

WEATHER ROUNDUP FOR COLORADO
NATIONAL WEATHER SERVICE DENVER/BOULDER CO
1200 PM MST FRI FEB 22 2019

NOTE: "FAIR" INDICATES FEW OR NO CLOUDS BELOW 12000 FEET WITH NO
SIGNIFICANT WEATHER AND/OR OBSTRUCTIONS TO VISIBILITY.

COZ001>005-013-030-031-222000-
...NORTHWEST COLORADO...
  
CITY           SKY/WX    TMP DP  RH WIND       PRES   REMARKS
CRAIG          CLOUDY    20  15  81 SW6       29.78F WCI  12          
HAYDEN         LGT SNOW  24  16  71 NW5       29.76F WCI  18          
MEEKER         LGT SNOW  24  20  84 SW5       29.73F FOG     WCI  18  
RANGELY        CLOUDY    26  14  60 E7        29.80F WCI  19          
RABBIT EARS PA LGT SNOW  18  16  93 NW7       29.65F VSB 1   WCI   8  
STEAMBOAT SPGS CLOUDY    23  19  83 W3        29.73S                  
WALDEN         CLOUDY    16  10  79 CALM      29.70F                  
$$

COZ006>008-011-222000-
...WEST CENTRAL VALLEYS...
  
CITY           SKY/WX    TMP DP  RH WIND       PRES   REMARKS
GRAND JUNCTION FLURRIES  33  29  85 W3        29.74F                  
MONTROSE       LGT SNOW  28  25  88 N8        29.74S VSB 1   WCI  20  
EAGLE          CLOUDY    27  23  85 CALM      29.72F                  
RIFLE          LGT SNOW  30  29  96 CALM      29.72F FOG              
DELTA          LGT SNOW  33  31  93 W7        29.73F VSB 1   WCI  27  
NUCLA          FAIR      32  28  86 N5        29.72F WCI  27          
$$

COZ017>023-064>068-222000-
...SOUTHWEST COLORADO...
  
CITY           SKY/WX    TMP DP  RH WIND       PRES   REMARKS
DURANGO        LGT SNOW  31  31 100 SW7       29.69F VSB 1   WCI  24  
CORTEZ         CLOUDY    35  29  78 W9        29.68S WCI  28          
PAGOSA SPRINGS LGT SNOW  31  30  97 CALM      29.70F VSB 3/4          
TELLURIDE      LGT SNOW  25  21  86 CALM      29.66F VSB 1            
WOLF CREEK PAS CLOUDY    14  14 100 MISG      29.68F                  
$$

COZ009-010-012-014-032>034-037-058>063-222000-
...CENTRAL COLORADO...
  
CITY           SKY/WX    TMP DP  RH WIND       PRES   REMARKS
ASPEN          CLOUDY    28  21  75 N6        29.66F WCI  22          
BUENA VISTA    FLURRIES  27  20  75 CALM      29.69F                  
COPPER MTN     LGT SNOW  19  12  73 SE13      29.63F WCI   7          
BERTHOUD PASS  CLOUDY    14   3  62 S16G35    29.64F WCI  -2          
COTTONWOOD PAS LGT SNOW  23  21  93 CALM      29.67F VSB 3/4          
GUNNISON       CLOUDY    30  20  66 VRB6      29.66F WCI  24          
GRANBY         CLOUDY    23  10  56 W6        29.67S WCI  16          
KREMMLING      CLOUDY    30  21  69 CALM      29.69F                  
LEADVILLE      CLOUDY    19  16  88 S15       29.64F FOG     WCI   5  
MONARCH PASS   CLOUDY    18  14  86 MISG      29.76F                  
SALIDA         CLOUDY    34  27  76 CALM      29.77F                  
SUNLIGHT       LGT SNOW  18  14  86 CALM      29.69F VSB 1            
WILKERSON PASS CLOUDY   N/A N/A N/A SW8       29.71S                  
$$

COZ069>075-222000-
...SAN LUIS VALLEY/SANGRE DE CRISTO MOUNTAINS...
  
CITY           SKY/WX    TMP DP  RH WIND       PRES   REMARKS
ALAMOSA        PTSUNNY   35  23  61 S31G41    29.70F WCI  22          
DEL NORTE      CLOUDY    29  22  73 CALM      29.70F                  
LA VETA PASS   NOT AVBL                                               
SAGUACHE       PTSUNNY   32  23  69 CALM      29.71F                  
$$

COZ035-036-038>040-222000-
...NORTHERN COLORADO FRONT RANGE...
  
CITY           SKY/WX    TMP DP  RH WIND       PRES   REMARKS
DENVER INTL AP CLOUDY    26  24  92 E12       29.77F WCI  16          
AURORA         CLOUDY    31  23  74 SE5       29.75F WCI  26          
FRONT RANGE AP CLOUDY    28  27  93 E5        29.78F WCI  23          
ERIE MUNI ARPT CLOUDY    24  23  96 NE5       29.86S FOG     WCI  18  
BOULDER MUN AP CLOUDY    23  23 100 CALM      29.79F FOG              
CENTENNIAL     PTSUNNY   33  22  63 E5        29.74F WCI  29          
BROOMFIELD     CLOUDY    25  23  93 N3        29.78F FOG              
FORT COLLINS   SNOW      25  21  86 E5        29.81F VSB 1/2 WCI  19  
LONGMONT       CLOUDY    27  24  89 NE6       29.82F FOG     WCI  20  
$$

COZ041-046-047-076>085-087-088-222000-
...PIKES PEAK/PALMER DIVIDE AND SOUTHERN FOOTHILLS...
  
CITY           SKY/WX    TMP DP  RH WIND       PRES   REMARKS
COLO. SPRINGS  FAIR      35  23  61 SE8       29.75F WCI  29          
A. F. ACADEMY  CLOUDY    28  20  73 S6        29.72F WCI  21          
SCHRIEVER AFB  NOT AVBL                                               
CHEYENNE MTN   FAIR      32  23  68 SE10      29.67F WCI  24          
ELLICOTT         N/A    N/A N/A N/A S8G17     29.74F                  
FALCON         FAIR      34  20  55 S9G21     29.74F WCI  27          
FORT CARSON    FAIR      35  22  57 S9        29.74F WCI  28          
LIMON          CLOUDY    31  30  96 S13       29.78F WCI  21          
MONUMENT HILL  FAIR      32  23  69 SE9       29.73F WCI  24          
CANON CITY     NOT AVBL                                               
WALSENBURG     NOT AVBL                                               
TRINIDAD       FAIR      52  21  29 S23G33    29.72F                  
$$

COZ042>045-048>051-090-091-222000-
...NORTHEAST COLORADO...
  
CITY           SKY/WX    TMP DP  RH WIND       PRES   REMARKS
GREELEY ARPT   CLOUDY    24  22  91 SE5       29.84F WCI  18          
AKRON          FOG       24  24 100 NE7       29.84F VSB<1/4 WCI  16  
BURLINGTON     CLOUDY    35  31  85 SE23G30   29.84F WCI  23          
WRAY           FOG       30  30 100 E12       29.87F VSB<1/4 WCI  21  
YUMA           FOG       27  25  93 E3        29.86F VSB<1/4          
STERLING       FOG       25  23  93 N6        29.86F VSB 3/4 WCI  18  
HOLYOKE        FOG       32  30  93 SE7       29.90F VSB<1/4 WCI  26  
FORT MORGAN      N/A     24  22  93 E9        29.85F FOG     WCI  14  
$$

COZ086-089-092>099-222000-
...SOUTHEAST COLORADO...
  
CITY           SKY/WX    TMP DP  RH WIND       PRES   REMARKS
PUEBLO         FAIR      39  26  59 SE6       29.77F                  
LA JUNTA       FAIR      43  28  55 MISG      29.80F                  
LAMAR          CLOUDY    40  30  67 SE17G29   29.81F                  
SPRINGFIELD      N/A     38  32  79 S21       29.83F                  
$$